Theta_e
339 341 342 343 344 344 344 344 344 344 343 343 342 342 341 340 339 338 337 333 332 331 330 330 329 329 330 330 331 329 330 330 330 329 328 326 325 324 323 322 321 319 318 317 315 314 312 310 309 309 312 315
335 337 339 340 340 341 341 341 342 342 342 342 341 339 338 337 336 335 336 334 331 330 330 329 329 329 330 330 330 330 330 329 329 327 326 326 324 323 322 321 319 318 316 315 313 311 310 308 307 307 309 312
340 330 334 336 337 338 338 339 339 340 338 337 337 335 333 329 329 330 330 332 331 330 330 329 330 329 330 330 330 330 329 329 328 326 326 325 324 323 321 320 319 317 315 313 311 309 307 306 305 305 310 310
339 332 327 331 333 334 335 336 336 336 333 331 329 329 326 324 327 325 327 322 327 328 329 327 326 328 329 329 329 329 328 327 327 326 325 324 323 322 320 318 316 314 313 311 310 308 306 304 305 306 305 308
338 338 327 328 328 329 331 332 332 333 327 324 323 324 321 321 330 330 330 329 328 323 329 322 320 327 328 328 328 327 327 326 326 326 325 324 322 321 318 316 314 312 311 310 309 306 304 303 305 306 306 307
338 339 332 337 338 338 335 329 327 333 336 326 335 322 327 331 330 330 330 328 323 327 326 324 318 323 328 327 327 326 325 325 325 324 323 322 320 317 314 311 311 308 306 306 305 303 303 305 304 305 305 306
337 337 336 337 337 337 331 334 335 337 335 334 334 332 331 329 330 330 328 328 325 325 321 323 317 321 326 326 325 324 323 323 323 321 320 317 315 311 307 308 307 307 306 303 300 303 305 304 304 305 306 305
335 335 335 335 335 335 335 336 336 336 335 334 334 332 331 329 329 328 328 317 315 318 325 323 317 319 321 322 321 320 321 321 320 318 316 312 308 305 308 306 304 304 304 304 304 304 303 303 304 305 304 304
331 333 333 333 333 333 333 334 334 334 334 334 333 331 329 329 327 327 326 324 324 324 324 323 324 324 323 323 322 317 321 320 318 315 312 306 304 305 305 304 304 304 303 303 303 303 302 302 304 303 303 303
332 330 331 331 331 331 332 332 333 332 332 331 330 329 327 325 325 325 324 323 323 323 322 322 322 322 322 321 320 318 318 316 314 310 307 305 304 304 304 304 305 304 302 303 302 301 303 302 302 303 302 302
330 330 331 331 331 331 330 330 331 329 329 328 328 327 324 324 324 323 322 321 321 320 320 320 320 320 319 319 317 316 314 311 309 305 304 303 304 303 303 303 303 303 303 303 303 302 302 302 302 302 302 302
328 329 330 330 329 329 329 329 329 328 327 327 324 324 323 323 323 322 320 319 319 318 318 318 318 318 317 316 314 312 311 308 305 303 304 304 304 303 303 303 302 301 301 302 303 302 302 302 301 302 301 301
327 328 328 328 328 328 325 327 328 328 326 324 323 322 321 322 321 321 319 318 317 317 316 316 315 314 314 313 311 309 307 305 303 302 302 303 302 302 301 301 301 301 301 301 301 301 301 302 301 302 302 302
325 326 326 327 327 327 326 326 327 327 324 323 321 319 319 319 321 320 318 316 316 314 314 313 313 312 312 310 309 307 305 303 302 302 302 303 303 302 301 301 300 300 300 300 300 300 301 301 301 301 301 302
324 324 325 325 326 326 325 326 326 324 324 322 320 319 317 317 318 318 317 315 314 312 312 311 310 310 309 308 306 305 303 302 303 302 302 302 301 300 300 300 299 299 299 299 299 300 301 301 301 301 301 301
322 323 323 324 324 324 325 325 323 323 322 319 319 317 315 316 315 315 315 314 312 311 310 309 308 308 307 307 305 303 303 301 302 302 303 303 302 302 301 299 298 300 298 299 299 300 300 301 300 300 300 300
321 322 322 322 323 323 323 322 323 322 320 319 318 316 315 314 314 313 313 312 311 309 309 308 306 305 305 305 303 302 302 302 302 301 300 300 300 299 300 299 298 299 299 298 298 299 299 300 300 300 300 300
320 321 321 321 322 322 321 321 320 320 320 318 317 315 314 313 312 310 311 310 309 308 307 306 305 304 303 303 302 301 301 299 299 299 299 299 298 298 297 298 297 296 297 297 298 298 299 300 299 299 299 299
319 320 320 319 320 320 319 320 319 319 318 317 315 314 313 312 310 309 309 309 308 306 305 304 303 302 302 302 301 300 299 299 299 300 300 298 297 297 297 298 297 298 298 297 298 298 298 298 298 299 298 299
318 319 319 319 316 318 318 318 317 317 316 316 315 312 312 311 310 309 308 307 307 305 304 303 302 301 301 301 299 299 299 300 299 299 300 299 299 296 296 297 296 298 297 298 297 298 298 298 298 298 298 298
318 318 318 317 317 317 316 316 315 315 315 314 313 311 310 309 308 308 307 306 305 304 303 302 302 300 300 300 299 299 299 298 299 300 300 298 298 298 296 296 297 297 297 297 297 297 297 298 297 298 298 298
316 317 317 316 315 314 314 314 314 314 313 312 312 310 309 308 307 306 306 305 304 303 303 302 301 300 299 298 299 298 298 298 299 299 299 296 297 298 296 295 296 295 297 297 297 296 296 296 297 297 297 297
316 315 315 315 314 312 312 312 312 312 311 311 310 309 309 307 306 305 305 304 303 302 302 301 301 299 299 298 298 298 297 298 298 298 298 297 295 296 297 296 296 296 297 297 296 295 295 296 296 297 296 296
313 313 312 311 311 310 309 310 309 310 309 309 308 308 307 307 305 304 303 303 302 302 301 300 300 298 298 297 297 297 297 296 296 297 297 297 296 294 294 297 298 297 296 295 295 294 294 295 295 295 295 296
311 311 310 310 309 308 309 308 308 307 308 307 307 307 306 306 305 304 303 302 302 301 300 300 300 298 297 297 297 296 297 297 297 297 297 296 295 294 293 294 296 297 297 294 292 293 293 293 294 293 293 293
310 311 311 309 309 308 308 307 305 305 306 305 305 305 305 305 305 304 302 301 301 300 300 299 298 297 296 296 296 297 298 298 297 297 297 296 294 296 293 292 295 297 295 293 292 290 290 291 291 292 292 292
309 311 311 309 309 308 307 307 307 306 305 304 303 303 303 303 303 303 302 301 300 300 300 299 298 297 296 296 296 296 297 297 296 296 296 295 294 293 295 294 295 296 298 293 295 294 292 289 288 290 290 292
309 310 310 309 307 307 307 305 305 304 303 302 302 301 302 302 302 302 302 301 300 300 300 299 298 297 296 295 296 296 295 295 295 295 295 295 295 294 292 293 291 296 296 297 295 290 293 292 291 288 288 289
307 307 306 306 305 305 304 303 302 302 301 301 301 301 300 300 301 301 301 301 300 299 299 299 298 297 296 295 296 296 295 295 295 295 295 295 295 294 292 292 291 292 296 295 299 295 291 289 289 292 293 291
305 305 304 303 302 301 301 300 300 299 299 300 299 299 300 300 300 300 300 300 300 299 299 299 298 298 297 296 295 295 295 295 296 295 295 295 296 294 295 294 293 291 293 295 297 295 297 299 294 294 293 291
304 304 303 303 302 302 301 300 301 301 301 300 300 300 299 299 299 299 299 299 299 299 299 299 299 298 297 296 295 295 295 295 295 295 295 295 295 295 296 296 292 292 291 292 292 294 295 296 291 299 293 290
Wind_Speed
11 11 10 11 10 11 10 10 10 11 9 9 10 8 10 9 9 7 8 9 10 10 9 9 9 9 9 10 10 9 9 9 9 9 9 9 9 9 9 10 10 10 10 10 10 10 9 9 8 8 6 3
11 11 11 11 10 10 9 9 9 9 9 9 10 9 9 9 8 10 9 10 10 10 10 9 9 10 10 11 10 10 10 10 10 10 10 10 10 10 10 10 10 10 10 10 10 9 9 8 7 6 5 4
11 11 11 11 10 10 9 9 9 9 9 9 9 9 7 6 9 10 9 7 8 9 7 7 8 10 11 11 11 11 11 10 10 10 10 10 10 10 10 10 10 10 10 10 10 9 8 7 6 4 4 4
15 11 11 10 10 11 10 9 9 9 9 8 8 7 9 9 8 8 7 6 6 6 7 7 8 9 11 11 11 11 11 11 11 10 10 10 10 11 11 11 10 10 10 9 9 8 6 4 2 3 4 4
14 13 11 8 10 11 11 10 10 10 9 9 8 8 9 9 7 7 7 7 8 6 8 8 6 8 11 11 11 11 11 11 11 11 11 11 11 11 11 11 11 10 9 9 8 7 5 1 3 4 3 3
12 11 10 13 11 10 10 9 10 9 10 10 9 9 8 8 8 7 7 8 10 8 9 7 6 7 9 12 10 11 11 11 11 11 11 10 10 10 10 8 5 6 8 8 7 6 3 2 3 4 3 3
8 10 10 13 14 12 11 11 11 13 11 11 10 10 9 9 9 9 9 8 8 8 9 10 7 6 8 11 9 10 10 11 11 11 10 10 9 9 7 3 3 3 3 4 3 1 2 3 3 3 3 2
10 12 13 12 13 13 13 13 10 15 13 10 10 10 9 9 8 8 9 7 8 6 8 6 6 5 7 8 7 9 9 10 9 11 10 10 10 6 3 2 3 3 2 2 2 2 2 3 3 2 2 2
14 14 12 14 13 14 14 13 13 14 10 9 10 9 9 9 7 8 8 8 8 9 8 8 9 8 10 9 10 9 8 7 7 7 6 5 5 3 3 3 3 3 3 2 2 2 2 2 2 2 2 2
12 13 13 14 14 14 13 14 13 11 9 8 9 9 9 8 8 9 8 9 10 10 9 9 9 9 8 9 7 7 6 5 6 5 5 5 4 3 3 3 2 2 2 2 2 2 2 2 2 2 1 1
11 11 12 11 13 14 14 13 10 9 9 9 10 10 9 9 9 10 9 9 10 10 9 9 9 8 7 8 7 7 6 5 5 5 5 5 4 3 4 3 3 3 2 2 3 3 2 2 1 1 1 1
11 11 12 12 11 12 12 11 11 10 10 9 9 9 10 10 10 10 10 10 10 10 9 9 9 8 7 7 7 6 5 6 5 5 4 4 5 5 4 4 3 3 3 3 2 3 2 2 1 1 1 2
12 11 12 11 11 13 12 11 11 11 9 9 9 9 10 11 11 10 10 10 10 9 10 9 8 8 8 7 6 6 5 6 5 5 5 5 5 5 4 4 3 3 3 2 2 2 2 1 2 2 1 2
12 12 12 12 13 12 11 12 11 11 9 9 9 9 10 11 11 11 11 11 10 10 10 8 8 8 8 8 7 6 6 6 5 6 5 5 5 5 5 4 4 3 3 2 2 1 2 1 1 1 1 1
13 12 13 12 11 12 11 12 10 9 10 9 9 10 11 11 11 10 11 10 11 10 9 8 8 8 7 8 7 7 6 5 5 5 5 6 6 5 5 4 4 3 4 3 2 2 1 1 1 1 1 1
14 14 13 13 11 12 12 12 11 11 10 10 10 10 10 11 11 10 10 10 10 10 10 10 10 9 8 8 7 7 6 6 5 5 4 5 5 5 5 5 4 3 4 3 3 2 2 2 2 2 2 2
14 13 12 12 13 12 11 11 11 11 11 10 10 9 11 11 12 11 10 10 10 10 9 9 10 9 8 8 8 7 7 7 6 5 5 5 5 5 5 5 4 3 3 3 3 2 2 2 2 2 2 2
13 14 13 12 12 12 11 11 11 11 10 10 9 10 11 11 11 11 10 10 10 10 9 9 9 9 9 7 8 7 7 7 7 6 6 6 6 5 6 5 5 5 4 4 3 3 3 2 3 3 3 3
16 14 13 13 12 12 12 11 11 11 10 9 9 10 10 12 11 12 11 10 10 10 9 9 9 9 8 7 8 7 7 8 7 7 7 7 7 6 5 5 5 5 4 5 4 3 3 3 3 3 3 3
15 15 13 12 12 11 12 11 11 11 10 10 10 10 10 12 11 11 11 10 10 10 9 9 9 9 7 8 7 7 7 7 8 7 7 6 7 8 6 6 5 4 4 4 4 3 3 3 2 3 3 3
14 13 12 12 12 12 11 12 11 10 10 10 10 10 10 11 11 12 11 11 11 10 10 9 8 8 8 8 8 7 8 7 7 7 7 6 5 6 7 6 6 5 4 4 4 3 3 3 3 3 3 3
12 11 11 10 9 10 10 12 10 9 9 10 10 10 10 11 12 12 12 12 11 10 9 9 8 7 9 9 8 7 7 7 6 6 7 8 5 5 7 6 7 6 4 4 4 4 3 3 2 3 3 3
11 10 10 8 9 9 10 9 9 9 10 10 10 10 11 11 11 11 12 12 12 11 10 9 9 8 10 9 8 8 8 7 7 6 6 7 7 4 4 6 6 6 6 5 4 4 4 3 3 2 3 3
9 9 10 10 9 9 11 10 10 10 10 10 10 10 11 11 12 11 12 13 12 12 11 11 10 10 10 9 8 9 9 8 8 10 9 8 9 8 3 1 4 7 7 7 6 5 4 3 3 4 3 2
9 10 9 9 11 12 9 10 10 10 10 10 10 10 11 11 11 11 12 12 13 13 12 11 9 10 10 9 9 9 10 10 10 9 9 8 7 10 8 5 5 7 8 9 6 5 4 3 3 4 2 3
9 9 9 9 10 9 9 9 10 11 10 10 9 9 11 10 11 11 12 11 12 11 12 12 10 10 10 10 10 9 8 8 8 9 8 9 8 6 9 7 8 8 10 6 8 8 5 3 3 2 2 2
9 8 8 8 7 8 7 6 7 8 7 7 8 8 10 10 10 11 11 11 11 11 11 10 10 11 11 11 10 9 9 9 10 10 11 12 10 9 6 5 7 9 9 7 7 7 7 5 5 4 3 3
7 6 5 5 1 3 5 4 5 5 4 6 8 9 9 9 11 12 11 12 13 10 11 12 11 10 10 12 11 11 11 11 11 10 10 11 10 11 10 7 8 8 6 4 12 8 5 7 5 5 8 8
7 5 4 4 0 1 2 3 3 5 8 7 7 7 8 10 10 11 11 11 13 11 12 11 11 11 11 12 12 11 10 11 12 12 11 12 11 13 12 10 8 9 7 8 5 3 6 3 3 6 5 10
7 6 6 6 6 7 6 7 7 8 7 6 6 7 4 6 8 8 9 9 11 11 11 12 12 12 12 12 11 11 10 9 9 10 11 12 11 12 11 10 10 10 7 7 6 6 5 2 2 5 7 9
5 5 6 8 9 8 8 9 7 6 5 6 6 7 8 7 8 10 10 9 10 11 11 10 11 11 12 12 12 11 11 11 12 11 11 10 10 11 10 10 11 12 11 6 6 5 4 3 2 2 10 7
Wind_Direction
191 197 199 197 212 210 210 200 200 203 209 204 199 200 202 216 196 187 181 195 195 200 192 198 205 206 201 192 187 186 189 186 160 149 138 131 128 122 117 113 108 103 97 90 85 79 71 58 48 29 351 75
198 197 201 200 208 211 220 214 210 208 210 210 204 200 194 207 192 163 175 185 191 197 195 197 201 199 197 191 189 185 181 168 154 146 140 135 130 126 120 114 111 105 100 95 89 84 77 70 56 43 23 65
199 202 201 203 205 208 214 214 212 209 210 203 202 191 173 139 148 155 155 162 187 190 184 192 194 196 192 188 183 176 166 158 152 146 142 138 133 126 120 115 109 105 101 99 97 94 92 89 77 61 73 66
208 197 204 203 202 204 210 213 210 204 192 184 175 168 134 133 134 137 140 146 179 185 176 171 192 187 191 186 178 170 163 157 150 147 145 140 133 127 120 112 105 100 99 96 93 92 90 92 140 94 83 79
211 200 189 200 203 205 205 205 200 190 177 166 151 146 137 136 173 173 173 165 198 167 183 166 186 185 192 182 172 166 161 156 152 148 143 138 130 122 113 101 91 87 88 85 81 77 68 2 68 63 62 62
205 202 189 207 203 203 199 196 191 179 186 177 174 141 145 177 186 190 185 190 200 192 189 166 182 201 191 180 165 170 160 157 153 149 143 134 124 118 113 118 122 102 79 72 74 65 359 54 62 60 53 50
200 199 199 208 210 210 200 196 192 200 188 187 181 171 176 186 196 191 194 195 186 205 180 185 176 188 183 174 163 165 158 158 152 148 139 132 124 119 123 130 115 114 119 105 115 142 60 63 58 60 57 64
204 206 208 209 210 211 205 206 195 206 196 186 174 170 178 186 178 168 188 103 111 116 169 160 169 172 163 153 156 149 156 151 148 137 125 119 123 133 157 126 120 119 123 120 87 72 74 74 75 63 69 68
209 208 206 210 210 210 208 207 203 202 188 180 170 169 181 179 156 170 183 170 174 187 185 180 182 180 183 182 180 165 168 164 146 150 145 140 161 153 141 136 126 132 129 124 117 90 83 93 87 90 76 78
198 199 204 207 207 207 206 205 200 196 185 179 174 174 176 159 162 175 182 179 182 188 185 180 179 180 181 177 165 176 165 161 163 159 157 158 163 154 144 131 127 121 127 126 117 103 85 90 103 92 83 92
198 197 200 201 204 202 205 204 192 189 188 184 178 174 165 172 177 182 186 182 184 186 183 183 179 178 175 172 172 181 176 167 166 169 162 162 155 143 132 120 115 107 94 96 105 102 96 83 88 93 97 91
201 199 200 203 197 200 199 193 192 192 190 178 176 176 175 181 182 184 187 186 186 186 185 186 181 176 172 175 176 179 177 169 174 171 164 154 140 140 136 130 130 125 115 102 97 103 100 99 101 91 91 85
205 201 202 200 198 200 197 198 197 193 181 177 181 180 175 180 183 187 189 188 187 184 187 183 175 174 176 176 174 176 180 175 175 173 165 156 155 150 145 142 134 125 114 114 100 102 112 118 102 109 110 103
204 204 202 203 201 199 193 200 198 185 181 187 182 182 183 182 187 189 189 186 185 184 185 180 174 177 178 177 174 179 183 180 179 173 166 158 152 148 144 143 130 138 123 105 103 104 117 116 121 109 108 114
205 203 206 203 200 200 198 197 193 186 188 188 187 186 182 183 189 189 190 187 184 183 182 178 177 185 177 180 178 182 182 175 182 171 169 164 157 153 150 142 138 145 135 129 124 118 144 131 130 116 113 114
204 204 204 201 199 203 200 194 195 193 191 190 189 183 178 187 189 190 191 187 181 184 181 181 182 183 180 185 177 182 177 172 176 168 146 136 130 134 142 137 143 142 148 146 140 147 151 162 147 137 131 132
203 203 199 198 200 201 195 195 195 196 195 193 188 181 181 188 189 190 191 186 182 183 183 181 179 181 183 183 177 176 169 162 161 152 148 136 137 139 140 142 137 135 147 144 147 160 155 151 136 133 141 132
202 204 201 199 199 199 191 196 197 200 198 192 189 184 185 187 189 189 193 186 183 185 185 181 182 181 182 180 170 166 161 169 171 166 157 150 153 152 159 156 152 160 162 152 152 157 158 158 144 141 138 131
206 203 201 197 197 196 190 195 200 200 196 192 191 185 187 189 190 190 192 185 180 185 187 183 184 185 184 171 166 168 174 174 172 167 162 159 159 156 161 159 158 172 161 155 153 150 157 143 138 137 125 126
204 203 202 199 197 196 188 194 198 198 196 194 191 189 190 189 189 189 189 182 181 183 189 188 187 185 175 161 167 173 173 177 173 167 160 165 161 156 162 162 163 174 155 146 136 136 134 129 140 128 125 127
204 204 203 200 198 198 189 196 196 198 195 192 194 192 192 185 187 187 187 184 184 188 187 188 186 180 162 165 174 174 175 182 177 163 155 157 166 164 157 166 162 165 152 129 117 111 113 119 135 130 125 138
203 205 204 202 200 197 198 200 199 196 194 198 195 192 194 182 185 188 187 185 184 191 186 187 185 169 163 171 177 173 175 184 171 166 164 155 158 155 157 169 169 163 135 116 116 111 112 124 124 111 119 122
202 204 206 205 202 199 205 203 204 201 200 200 196 198 192 180 185 187 186 183 183 189 184 185 182 167 170 176 177 172 176 171 166 164 170 155 148 147 159 170 172 154 128 114 107 107 104 99 94 93 104 132
198 200 203 200 198 208 209 205 203 205 208 199 201 197 190 186 187 186 184 183 184 189 185 186 182 173 169 179 177 175 177 172 177 173 163 158 152 154 145 142 138 133 130 113 103 100 94 86 82 90 101 108
198 202 207 211 211 215 204 205 205 206 207 205 204 195 191 188 188 187 183 185 184 191 185 186 175 168 172 178 181 184 186 179 173 169 165 152 156 158 160 170 165 153 138 131 116 108 114 104 88 84 94 124
203 206 205 204 213 213 211 205 204 209 204 205 199 194 190 192 189 189 187 186 188 191 187 185 174 171 171 177 184 188 183 171 160 158 159 152 153 176 172 170 175 165 155 165 161 153 148 140 135 119 128 140
207 206 208 206 216 207 217 218 219 218 216 200 200 194 192 193 192 194 192 187 188 192 190 184 174 176 174 180 179 179 177 173 171 176 170 170 167 163 182 169 179 183 201 175 163 152 137 165 164 170 201 178
207 209 203 192 178 177 224 246 210 211 204 199 197 202 196 198 198 195 194 191 192 190 186 185 180 174 177 182 183 184 180 179 182 176 175 178 177 164 163 177 188 209 211 218 149 166 216 163 191 169 209 185
196 172 175 190 218 7 251 319 262 235 240 230 222 217 204 209 200 199 198 194 195 196 190 187 183 181 181 180 184 186 184 183 186 180 180 178 174 180 174 172 178 200 209 236 267 191 138 133 216 233 150 162
201 208 204 191 200 217 222 230 225 228 239 236 226 222 236 214 208 207 206 203 197 200 197 194 190 185 180 182 181 189 189 181 175 181 180 184 182 183 190 173 166 184 208 232 244 266 316 345 233 177 142 163
190 198 202 203 208 213 218 225 226 217 217 216 208 205 208 200 196 202 206 210 204 204 204 202 197 191 187 185 186 185 185 182 184 182 184 178 189 189 184 176 180 181 186 197 252 241 255 290 250 277 140 199